[Iaude] MPEC K05: 2020 JV1 [a=1.19,e=0.11,i=14.2,H=26.5]

mpec at marsden.cfa.harvard.edu mpec at marsden.cfa.harvard.edu
Sat May 16 16:19:00 EDT 2020


M.P.E.C. 2020-K05                                  Issued 2020 May 16, 20:17 UT

     The Minor Planet Electronic Circulars contain information on unusual
         minor planets and routine data on comets.  They are published
    on behalf of Division F of the International Astronomical Union by the
          Minor Planet Center, Smithsonian Astrophysical Observatory,
                          Cambridge, MA 02138, U.S.A.

             Prepared using the Tamkin Foundation Computer Network

                              MPC at CFA.HARVARD.EDU
            URL https://www.minorplanetcenter.net/    ISSN 1523-6714

                                    2020 JV1                                    


Observations:
     K20J01V* C2020 05 15.39797215 29 37.742-03 18 28.48         20.82wUEK005F51
     K20J01V  C2020 05 15.40997215 29 40.332-03 15 14.31         20.8 GVEK005F51
     K20J01V  C2020 05 15.42230615 29 42.983-03 11 54.86         20.5 GVEK005F51
     K20J01V  C2020 05 15.43428115 29 45.551-03 08 41.33         20.94wUEK005F51
     K20J01V  C2020 05 15.91537 15 32 01.53 -01 01 23.0          21.3 VVEK005033
     K20J01V  C2020 05 15.91641 15 32 01.78 -01 01 06.6          21.3 VVEK005033
     K20J01V  C2020 05 15.91745 15 32 02.02 -01 00 50.1          21.5 VVEK005033
     K20J01V  C2020 05 15.91867 15 32 02.30 -01 00 30.9          21.2 VVEK005033
     K20J01V  C2020 05 15.91976 15 32 02.56 -01 00 13.7          21.2 VVEK005033
     K20J01V  C2020 05 16.16202 15 33 14.13 +00 04 08.8                VEK005I52
     K20J01V  C2020 05 16.16568 15 33 15.03 +00 05 05.6          21.0 GVEK005I52
     K20J01V  C2020 05 16.16933 15 33 15.89 +00 06 03.2          21.5 GVEK005I52
     K20J01V  C2020 05 16.17299 15 33 16.77 +00 07 01.7          22.1 GVEK005I52
     K20J01V  C2020 05 16.36772 15 34 00.07 +00 57 38.3          21.1 GVEK005654
     K20J01V  C2020 05 16.39726 15 34 06.45 +01 05 17.0          21.2 GVEK005654
     K20J01V  C2020 05 16.42600 15 34 12.77 +01 12 42.8          21.1 GVEK005654
     K20J01V  C2020 05 16.45743 15 34 19.94 +01 20 49.5          21.0 GVEK005654
     K20J01V ^C2020 05 16.50749215 34 35.217+01 34 21.23         21.29GVEK005568
     K20J01V ^C2020 05 16.50843915 34 35.416+01 34 35.83         20.74GVEK005568
     K20J01V ^C2020 05 16.50938515 34 35.614+01 34 50.49         20.83GVEK005568
     K20J01V ^C2020 05 16.51033615 34 35.814+01 35 05.14         21.21GVEK005568

Observer details:
033 Karl Schwarzschild Observatory, Tautenburg.  Observers S. Melnikov, C. 
   Hoegner, B. Stecklum.  Measurer B. Stecklum.  1.34-m f/3 Schmidt + CCD.
568 Mauna Kea.  Observers R. Wainscoat, L. Wells, T. Burdullis.  Measurers R. 
   Weryk, R. Wainscoat.  3.6-m Canada-France-Hawaii Telescope + CCD.
654 Table Mountain Observatory, Wrightwood-PHMC.  Observers P. Choi, N. Saini, 
   C. Zhai, R. Trahan, M. Shao.
F51 Pan-STARRS 1, Haleakala.  Observers J. Bulger, T. Lowe, A. Schultz, M. 
   Willman, K. Chambers.  Measurers K. Chambers, S. Chastel, T. de Boer, L. 
   Denneau, J. Fairlamb, H. Flewelling, M. Huber, C.-C. Lin, E. Magnier, Y. 
   Ramanjooloo, R. Wainscoat, R. Weryk.  1.8-m Ritchey-Chretien + CCD.
I52 Steward Observatory, Mt. Lemmon Station.  Observer D. C. Fuls.  Measurers 
   E. J. Christensen, G. A. Farneth, D. C. Fuls, A. R. Gibbs, A. D. Grauer, H. 
   Groeller, R. A. Kowalski, S. M. Larson, G. J. Leonard, T. A. Pruyne, D. 
   Rankin, R. L. Seaman, F. C. Shelly, K. W. Wierzchos.  1.0-m reflector + CCD.

Orbital elements:
2020 JV1                                                 Earth MOID = 0.0511 AU
Epoch 2020 May 31.0 TT = JDT 2459000.5                  Pike
M   9.87418              (2000.0)            P               Q
n   0.76066003     Peri.    5.51037     -0.54500039     +0.81615719
a   1.1885268      Node   231.62147     -0.77830209     -0.57762798
e   0.1071256      Incl.   14.17678     -0.31180190     +0.01527596
P   1.30           H   26.5           G   0.15           U   6
Residuals in seconds of arc
200515 F51  0.0   0.0     200515 033  0.0   0.1+    200516 654  0.2-  0.1-
200515 F51  0.0   0.0     200515 033  0.1+  0.0     200516 654  0.3-  0.1+
200515 F51  0.0   0.0     200516 I52  0.6-  0.2-    200516 654  0.5+  0.3+
200515 F51  0.0   0.1-    200516 I52  0.0   0.8-    200516 568  0.0   0.0
200515 033  0.0   0.3+    200516 I52  0.1+  0.5-    200516 568  0.0   0.0
200515 033  0.1+  0.2+    200516 I52  0.6+  0.6+    200516 568  0.1-  0.0
200515 033  0.1+  0.2+    200516 654  0.2-  0.1+    200516 568  0.1-  0.0

Ephemeris:
2020 JV1                 a,e,i = 1.19, 0.11, 14                  q = 1.0612
Date    TT    R. A. (2000) Decl.     Delta      r    Elong.  Phase     V
2020 04 16    12 28 34.9 -68 59 44   0.1308  1.0751   120.1    53.9    24.2
...
2020 05 01    14 02 52.1 -55 37 05   0.07477 1.0652   139.0    38.3    22.5
...
2020 05 09    14 55 27.3 -32 06 28   0.05453 1.0623   165.1    14.1    21.1
...
2020 05 15    15 27 42.5 -05 05 31   0.05183 1.0613   166.2    13.1    21.0
2020 05 16    15 32 22.4 -00 37 05   0.05271 1.0612   161.5    17.6    21.2
2020 05 17    15 36 50.4 +03 40 04   0.05394 1.0612   157.0    21.9    21.3
...
2020 05 23    15 59 50.0 +23 54 34   0.06721 1.0616   135.5    41.9    22.4
...
2020 05 31    16 22 22.9 +38 09 49   0.09347 1.0636   119.9    55.7    23.5
...
2020 06 15    16 49 38.7 +47 35 20   0.1485  1.0720   108.4    64.0    24.8

M. P. C. Staff               (C) Copyright 2020 MPC           M.P.E.C. 2020-K05




More information about the Iaude mailing list